DELTA 1 DEB, 10710

Orbit data source: Space-Track

DELTA 1 DEB, 10710 is space debris in LEO originally from a launch on Thu, 29 Jul 1976 UTC launched from the Air Force Western Test Range (AFWTR). Debris objects in space refer to the collection of defunct objects orbiting the Earth. Examples of debris include non-operational satellites, rocket bodies, and fragments generated from explosions, collisions, or faulty payload assembly.

Loading next visibility...
Identifier
10710, 1976-077AF
Orbit
LEO
Country
Flag of USUS
Related business
Manufacturer
Unknown
Mission
Spacecraft
Bus & Motor
Unknown
Mass
Unknown
Launch date (UTC)
1976-07-29 (49 years ago)
Launch vehicle
Unknown
Launch site
Air Force Western Test Range (AFWTR)
Object type
Payload
Rocket body
Debris
Shape & HBR
Unknown shape, 0.1 m
Radar Cross Section
Small (<0.1 m²)

Expand to show TLE details & history
Last TLE update: 22 hours ago

TLE from 22 hours ago
0 DELTA 1 DEB
1 10710U 76077AF  25318.09221183  .00000879  00000-0  10424-1 0  9997
2 10710 101.7690 129.8538 0255248  65.8599  56.7304 11.99217421126998
Epoch: 2025-11-14T02:12Z
TLE epoch observation values (Epoch: 2025-11-14T02:12:47.102Z)
Latitude
53.33474°
Longitude
-120.6117°
Altitude
1,583.694 km
Speed
7.13 km/s
True Right ascension
21h 44m 06s
True Declination
53° 11' 13"
Sunlit
Object was in daylight at epoch
Visualization orbit readout
Latitude
Unknown
Longitude
Unknown
Altitude
Unknown
Speed
Unknown
Apparent Right ascension
Unknown
Apparent Declination
Unknown
Sunlit
N/A
Visualization observer readout
Local Sidereal Time
20:47:05
Azimuth
Unknown
Elevation
Unknown
Doppler factor
Unknown
Orbital elements
Apogee altitude
1,887.712 km
Perigee altitude
1,476.246 km
Semi-major axis
8,060.116 km
Eccentricity
0.02552
Inclination
101.769°
RAAN
129.8538°
Arg. of periapsis
65.8599°
True anomaly
59.21868°
Mean anomaly
56.7304°
Eccentric anomaly
57.97024°
Mean motion
2.99938 °/min
Orbital period
120.02 mins
BSTAR
0.010424
Loading maneuver chart data...
Computing Atmospheric mass density...
Loading historical data...
Loading historical data...
Loading historical data...
Loading historical data...
Loading historical data...
Loading historical data...
Loading historical data...

Documentation

Showing up to 5 results
|